Погода в Дуонге-Донге

Вьетнам     10°13′24″N   103°57′55″E
темп.,
°C
ветер,
м/с
пор.,
м/с
влажн.,
%
обл.,
%
осадки,
мм/ч
давл.,
гПа
погр.,
м
17 июня, чт
чт1701:00+27з358395 0.0 1010318
04:00+27зюз238098 0.0 1009291
07:00+28з247953 0.0 1010371
10:00+30зсз456882 0.0 1011921
13:00+30з55716 0.8 1010866
16:00+30зсз576614 0.5 1008941
19:00+27з36785 0.5 1010333
22:00+27з3775100 0.0 1011339
18 июня, пт
пт1801:00+27зсз368038 0.0 1010359
04:00+27з3682100 0.0 1010360
07:00+28з3579100 0.0 1011466
10:00+30з566811 0.0 10121109
13:00+30з67665 0.0 10101097
16:00+30з677014 0.0 1009975
19:00+28з477999 0.0 1010522
22:00+27з368150 0.0 1011381
19 июня, сб
сб1901:00+27з36824 0.0 1010385
04:00+27з36836 0.1 1010273
07:00+27з477921 0.9 1011539
10:00+30з676611 0.0 10111087
13:00+30з67655 0.0 10091074
16:00+30зсз67696 0.0 10081004
19:00+28з488014 0.0 1009592
22:00+28зсз4780100 0.0 1010535
20 июня, вс
вс2001:00+27з478192 0.0 1009449
04:00+27зсз588087 0.0 1008514
07:00+28зсз587992 0.0 1009823
10:00+30зсз677089 0.0 10101064
13:00+31з796458 0.0 10081110
16:00+30з796986 0.0 10071053
19:00+28зсз6108075 0.1 1008808
22:00+28з5880100 0.0 1010647
21 июня, пн
пн2101:00+28з697875 0.0 1008755
04:00+28з6978100 0.1 1007827
07:00+28з6977100 0.3 1009953
10:00+30зсз71067100 0.0 10091154
13:00+30з81163100 0.0 10081232
16:00+29зсз71069100 0.0 10061003
19:00+28з5976100 0.0 1007689
22:00+28з5880100 0.0 1009677